SWR176 LSZH-WSSS

Flight info

Callsign SWR176
Flight time N/A
Altitude 33000
Route DEGES Z2 UMVEG DCT DIMLO DCT TEGRI DCT VEVIN DCT DINRO DCT UDROS DCT ABSAX DCT KARDE DCT REBLO/N0480F350 M11 RODAR A909 ABDAN A846 RANAH L750 ZB G202 RK P628 NIKOT/N0489F370 P628 IBANI L510 AGEGA/N0480F390 L510 GIVAL P628 VPL Y503 RINBA Y507 MAKNA Y511 TOPOR A464 ARAMA DCT TEBUN TEBUN1A
Aircraft B77W/H-SDE1E2E3FGHIJ2J3J4J5M1RWXY/LB1D1

Departure

Time N/A
Airport Zürich Airport (LSZH)

Arrival

Time 2026-05-04 08:57
Airport Singapore Changi Airport (WSSS)
Time Latitude Longitude Altitude Speed Heading
2026-05-04 07:35 7.15112 97.38754 36861 ft 477 kts 104°
2026-05-04 07:35 7.14323 97.41964 36860 ft 477 kts 104°
2026-05-04 07:36 7.12725 97.48458 36859 ft 477 kts 104°
2026-05-04 07:38 7.06335 97.74373 36860 ft 478 kts 104°
2026-05-04 07:38 7.04729 97.80869 36861 ft 478 kts 104°
2026-05-04 07:39 7.03393 97.86273 36861 ft 478 kts 104°
2026-05-04 07:39 7.01790 97.92765 36852 ft 478 kts 104°
2026-05-04 07:40 7.00174 97.99266 36844 ft 478 kts 105°
2026-05-04 07:40 6.98033 98.05601 36851 ft 478 kts 110°
2026-05-04 07:41 6.95671 98.11882 36853 ft 479 kts 110°
2026-05-04 07:41 6.93337 98.18122 36853 ft 479 kts 110°
2026-05-04 07:42 6.91016 98.24407 36852 ft 479 kts 110°
2026-05-04 07:42 6.88698 98.30699 36850 ft 479 kts 110°
2026-05-04 07:43 6.86384 98.36984 36850 ft 479 kts 110°
2026-05-04 07:43 6.84069 98.43270 36849 ft 478 kts 110°
2026-05-04 07:44 6.81757 98.49542 36854 ft 478 kts 110°
2026-05-04 07:44 6.79436 98.55833 36862 ft 479 kts 110°
2026-05-04 07:45 6.77134 98.62071 36861 ft 479 kts 110°
2026-05-04 07:45 6.74802 98.68348 36859 ft 479 kts 110°
2026-05-04 07:46 6.72476 98.74619 36861 ft 478 kts 110°
2026-05-04 07:46 6.70159 98.80897 36863 ft 478 kts 110°
2026-05-04 07:47 6.67846 98.87168 36860 ft 478 kts 110°
2026-05-04 07:49 6.58583 99.12214 36871 ft 477 kts 110°
2026-05-04 07:49 6.56282 99.18424 36871 ft 477 kts 110°
2026-05-04 07:50 6.53975 99.24665 36879 ft 476 kts 110°
2026-05-04 07:50 6.51668 99.30906 36882 ft 476 kts 110°
2026-05-04 07:51 6.49352 99.37142 36881 ft 476 kts 110°
2026-05-04 07:51 6.47025 99.43377 36880 ft 475 kts 110°
2026-05-04 07:52 6.44695 99.49613 36881 ft 475 kts 110°
2026-05-04 07:52 6.42370 99.55840 36873 ft 475 kts 110°
2026-05-04 07:54 6.30811 99.79387 36895 ft 475 kts 134°
2026-05-04 07:55 6.26135 99.84099 36884 ft 476 kts 134°
2026-05-04 07:55 6.21479 99.88814 36882 ft 476 kts 133°
2026-05-04 07:56 6.16846 99.93574 36877 ft 475 kts 133°
2026-05-04 07:56 6.12227 99.98328 36879 ft 475 kts 133°
2026-05-04 07:57 6.07623 100.03048 36871 ft 475 kts 134°
2026-05-04 07:57 6.02976 100.07795 36868 ft 476 kts 134°
2026-05-04 07:58 5.98327 100.12541 36868 ft 475 kts 134°
2026-05-04 07:58 5.93687 100.17278 36859 ft 475 kts 134°
2026-05-04 07:59 5.89055 100.22010 36862 ft 475 kts 134°
2026-05-04 07:59 5.84424 100.26739 36861 ft 475 kts 133°
2026-05-04 08:00 5.79822 100.31437 36861 ft 475 kts 134°
2026-05-04 08:02 5.61256 100.50380 36861 ft 476 kts 134°
2026-05-04 08:02 5.56641 100.55086 36860 ft 476 kts 134°
2026-05-04 08:03 5.51994 100.59822 36862 ft 476 kts 134°
2026-05-04 08:03 5.47338 100.64566 36864 ft 476 kts 134°
2026-05-04 08:04 5.42686 100.69308 36871 ft 477 kts 134°
2026-05-04 08:04 5.37708 100.73680 36862 ft 477 kts 149°
2026-05-04 08:05 5.31526 100.76045 36867 ft 479 kts 169°
2026-05-04 08:05 5.24908 100.77011 36875 ft 480 kts 171°
2026-05-04 08:06 5.18337 100.77953 36885 ft 481 kts 171°
2026-05-04 08:06 5.11713 100.78975 36877 ft 482 kts 170°
2026-05-04 08:08 4.85173 100.83163 36879 ft 482 kts 170°
2026-05-04 08:11 4.55433 100.87887 36880 ft 481 kts 170°
2026-05-04 08:11 4.45604 100.89848 36882 ft 480 kts 161°
2026-05-04 08:12 4.39489 100.92407 36885 ft 479 kts 153°
2026-05-04 08:12 4.33504 100.95382 36878 ft 480 kts 153°
2026-05-04 08:13 4.27508 100.98348 36881 ft 480 kts 153°
2026-05-04 08:13 4.21505 101.01288 36879 ft 480 kts 153°
2026-05-04 08:14 4.15489 101.04216 36882 ft 480 kts 153°
2026-05-04 08:16 3.91476 101.15903 36882 ft 480 kts 154°
2026-05-04 08:16 3.85457 101.18835 36882 ft 480 kts 154°
2026-05-04 08:17 3.79449 101.21759 36881 ft 480 kts 153°
2026-05-04 08:17 3.73489 101.24713 36873 ft 480 kts 152°
2026-05-04 08:19 3.49784 101.37108 36857 ft 481 kts 152°
2026-05-04 08:20 3.43876 101.40180 36852 ft 481 kts 152°
2026-05-04 08:20 3.37941 101.43268 36856 ft 481 kts 152°
2026-05-04 08:21 3.32002 101.46356 36859 ft 481 kts 152°
2026-05-04 08:21 3.25962 101.49229 36859 ft 480 kts 155°
2026-05-04 08:22 3.19866 101.51965 36863 ft 480 kts 155°
2026-05-04 08:24 3.00539 101.64647 36854 ft 479 kts 137°
2026-05-04 08:24 2.98061 101.66867 36853 ft 479 kts 137°
2026-05-04 08:24 2.93074 101.71300 36846 ft 479 kts 138°
2026-05-04 08:25 2.88090 101.75698 36838 ft 479 kts 138°
2026-05-04 08:25 2.83934 101.79357 36835 ft 479 kts 138°
2026-05-04 08:27 2.63921 101.96982 36832 ft 479 kts 138°
2026-05-04 08:28 2.58909 102.01395 36833 ft 479 kts 137°
2026-05-04 08:28 2.53910 102.05801 36842 ft 479 kts 137°
2026-05-04 08:29 2.48911 102.10203 36840 ft 479 kts 137°
2026-05-04 08:31 2.28933 102.27779 36862 ft 478 kts 137°
2026-05-04 08:33 2.11371 102.43224 34149 ft 475 kts 137°
2026-05-04 08:33 2.08899 102.45398 33563 ft 472 kts 137°
2026-05-04 08:35 1.94090 102.62084 29674 ft 448 kts 126°
2026-05-04 08:35 1.92239 102.64569 29120 ft 445 kts 126°
2026-05-04 08:35 1.90391 102.67033 28562 ft 442 kts 126°
2026-05-04 08:35 1.88550 102.69481 28010 ft 439 kts 126°
2026-05-04 08:37 1.77794 102.83764 24793 ft 419 kts 126°
2026-05-04 08:37 1.76051 102.86081 24262 ft 416 kts 126°
2026-05-04 08:37 1.74322 102.88393 23742 ft 413 kts 125°
2026-05-04 08:38 1.72780 102.90795 23219 ft 409 kts 118°
2026-05-04 08:38 1.71450 102.93296 22719 ft 406 kts 117°
2026-05-04 08:38 1.70146 102.95783 22208 ft 403 kts 117°
2026-05-04 08:40 1.61154 103.12653 18761 ft 384 kts 117°
2026-05-04 08:40 1.59899 103.15001 18271 ft 381 kts 117°
2026-05-04 08:40 1.58661 103.17320 17796 ft 377 kts 116°
2026-05-04 08:41 1.57428 103.19631 17317 ft 374 kts 117°
2026-05-04 08:41 1.56210 103.21914 16842 ft 372 kts 117°
2026-05-04 08:41 1.54997 103.24185 16372 ft 369 kts 117°
2026-05-04 08:41 1.53793 103.26441 15895 ft 367 kts 117°
2026-05-04 08:42 1.52595 103.28680 15430 ft 364 kts 117°
2026-05-04 08:42 1.51406 103.30903 14962 ft 361 kts 117°
2026-05-04 08:42 1.50187 103.33087 14501 ft 359 kts 120°
2026-05-04 08:42 1.48857 103.35192 14041 ft 356 kts 123°
2026-05-04 08:43 1.47430 103.37206 13599 ft 354 kts 124°
2026-05-04 08:43 1.46103 103.39266 13167 ft 349 kts 119°
2026-05-04 08:43 1.45217 103.41482 12749 ft 342 kts 100°
2026-05-04 08:43 1.45198 103.43804 12361 ft 339 kts 79°
2026-05-04 08:44 1.45733 103.46083 12021 ft 329 kts 78°
2026-05-04 08:44 1.46161 103.48320 11654 ft 326 kts 80°
2026-05-04 08:46 1.49933 103.62961 9825 ft 288 kts 72°
2026-05-04 08:46 1.50510 103.64877 9500 ft 287 kts 73°
2026-05-04 08:46 1.51081 103.66786 9182 ft 286 kts 72°
2026-05-04 08:46 1.51649 103.68691 8850 ft 286 kts 72°
2026-05-04 08:47 1.52213 103.70596 8515 ft 285 kts 72°
2026-05-04 08:47 1.52773 103.72492 8178 ft 284 kts 73°
2026-05-04 08:47 1.53330 103.74380 7856 ft 283 kts 73°
2026-05-04 08:47 1.53884 103.76264 7517 ft 282 kts 73°
2026-05-04 08:48 1.54438 103.78142 7197 ft 281 kts 73°
2026-05-04 08:48 1.54992 103.80020 6831 ft 281 kts 73°
2026-05-04 08:48 1.55312 103.81902 6490 ft 277 kts 86°
2026-05-04 08:48 1.55384 103.83848 6177 ft 276 kts 88°
2026-05-04 08:49 1.55412 103.85763 5876 ft 275 kts 89°
2026-05-04 08:50 1.55500 103.96505 3911 ft 239 kts 90°
2026-05-04 08:50 1.55495 103.98121 3682 ft 227 kts 90°
2026-05-04 08:51 1.55499 103.99659 3390 ft 216 kts 89°
2026-05-04 08:51 1.55475 104.01113 3267 ft 206 kts 99°
2026-05-04 08:51 1.54988 104.02475 3179 ft 210 kts 127°
2026-05-04 08:51 1.53858 104.03328 3169 ft 203 kts 158°
2026-05-04 08:52 1.52545 104.03785 3102 ft 196 kts 161°
2026-05-04 08:52 1.51243 104.04138 2857 ft 193 kts 178°
2026-05-04 08:52 1.49952 104.03865 2657 ft 190 kts 198°
2026-05-04 08:52 1.48661 104.03490 2393 ft 194 kts 197°
2026-05-04 08:53 1.47397 104.03025 2134 ft 192 kts 203°
2026-05-04 08:54 1.40199 103.99989 644 ft 148 kts 204°
2026-05-04 08:55 1.39246 103.99586 425 ft 147 kts 204°
2026-05-04 08:55 1.38306 103.99191 233 ft 147 kts 204°
2026-05-04 08:55 1.37370 103.98794 51 ft 147 kts 204°
2026-05-04 08:55 1.36507 103.98430 29 ft 120 kts 202°
2026-05-04 08:57 1.34945 103.98001 29 ft 11 kts 115°
2026-05-04 09:01 1.35048 103.98912 29 ft 10 kts 23°
2026-05-04 09:01 1.35111 103.98939 29 ft 10 kts 23°
2026-05-04 09:01 1.35145 103.98967 29 ft 6 kts 67°
2026-05-04 09:01 1.35152 103.99007 29 ft 6 kts 82°
2026-05-04 09:02 1.35154 103.99026 29 ft 0 kts 82°